GFSMW_prec_cloud_105.txt.gz
Cloud_Cover
4 0 4 69 67 11 65 54 5 1 5 5 7 49 46 81 62 22 57 35 72 100 73 95 100 100 95 100 81 99 100 78 100 100 76 100 67 28 86 99 100 70 11
44 23 25 54 95 59 12 14 8 15 17 87 100 100 100 100 95 100 100 98 84 100 100 100 100 99 93 97 33 100 100 100 96 100 100 100 100 100 86 80 88 76 100
17 5 21 31 62 100 100 69 72 99 99 88 35 16 10 10 51 10 5 8 5 4 90 89 100 100 98 100 18 100 97 100 58 100 100 100 100 100 75 98 93 100 100
8 65 5 54 32 4 5 5 8 8 12 56 67 66 17 1 0 0 1 0 1 15 98 55 100 100 100 100 41 74 96 100 80 99 100 100 80 50 100 100 100 100 100
80 100 35 2 0 0 0 3 40 40 63 89 86 88 98 42 0 0 0 0 0 12 100 100 100 100 100 99 70 100 100 88 87 97 100 96 39 70 99 99 100 100 100
100 100 12 0 0 0 16 73 81 71 100 93 100 100 100 100 21 1 0 0 0 1 96 100 100 96 100 67 99 100 86 90 17 34 100 62 95 87 100 98 100 100 100
100 82 0 0 0 3 35 100 100 95 93 100 100 100 100 100 99 33 0 27 47 76 55 100 100 100 100 81 100 100 100 100 33 51 100 100 100 56 99 82 100 100 100
100 92 18 5 5 6 55 100 100 84 94 100 100 100 100 100 100 77 44 26 55 67 70 100 100 100 100 100 100 100 100 100 100 100 100 100 31 31 100 100 100 100 100
100 97 19 5 15 93 99 100 100 96 85 100 100 100 100 100 99 16 43 99 62 72 97 100 100 100 100 98 84 100 100 100 100 86 100 100 98 99 36 100 98 100 100
100 100 6 9 16 50 87 97 100 100 100 100 100 100 100 100 90 100 100 100 100 81 89 97 93 100 100 100 100 100 100 100 100 100 100 100 100 98 60 69 100 100 100
100 100 8 14 53 70 86 97 100 100 96 100 100 100 100 100 100 100 100 100 92 96 100 100 100 100 100 100 100 100 100 100 100 100 100 100 97 100 97 79 100 100 100
100 95 100 44 84 96 87 100 100 100 100 100 100 100 100 100 100 100 91 100 89 100 100 21 99 100 100 98 100 100 100 100 100 100 85 100 100 100 99 98 99 100 100
78 100 100 100 100 84 97 100 69 100 100 100 100 100 100 100 100 100 100 100 100 82 100 100 100 100 100 100 100 100 100 100 100 100 66 90 100 85 99 100 100 100 99
100 100 100 100 100 92 99 100 100 90 100 96 100 100 100 100 100 100 100 100 100 100 100 100 100 100 100 100 100 100 100 100 100 96 100 100 78 72 99 97 100 100 100
100 100 100 100 100 96 94 100 100 100 100 100 100 100 100 100 100 100 100 100 100 100 100 100 100 100 100 100 100 100 100 100 100 100 100 100 100 100 100 100 100 100 100
100 100 100 100 100 100 100 100 100 100 100 100 100 100 100 100 100 100 100 100 100 100 100 100 100 100 100 100 100 97 100 100 100 100 100 100 100 100 86 97 100 100 100
98 100 100 100 100 100 100 100 100 100 100 100 100 100 100 100 100 100 100 100 100 100 100 100 100 100 100 100 100 100 100 100 100 100 100 100 100 100 100 100 100 100 100
87 97 100 100 100 100 100 100 100 100 100 100 100 100 100 100 100 100 100 100 100 100 100 100 100 100 100 100 100 100 100 100 100 100 100 100 100 100 100 100 100 100 100
100 100 100 100 100 100 100 100 100 100 100 100 100 100 100 100 100 100 100 100 100 100 100 100 100 100 100 100 100 100 100 100 100 100 100 100 100 100 100 100 100 100 100
100 100 100 100 100 100 100 100 100 100 100 100 100 100 100 100 100 100 100 100 100 100 100 100 100 100 100 100 100 100 100 100 100 100 100 100 100 100 100 100 100 100 100
100 100 100 100 100 100 100 100 100 100 100 100 100 100 100 100 100 100 100 100 100 100 100 100 100 100 100 100 100 100 100 100 100 100 100 100 100 100 100 100 100 100 100
100 100 100 100 100 100 100 100 100 100 100 100 100 100 100 100 100 100 100 100 100 100 100 100 100 100 100 100 100 100 100 100 100 100 100 100 100 100 100 100 100 100 100
100 100 100 100 100 100 100 100 100 100 100 100 100 100 100 100 100 100 100 100 100 100 100 100 100 100 100 100 100 100 100 100 100 100 100 100 100 100 100 100 100 100 100
100 100 100 100 100 100 100 100 100 100 100 100 100 100 100 100 100 100 100 100 100 100 100 100 100 100 100 100 100 100 100 100 100 100 100 100 100 100 100 100 100 100 100
100 100 100 100 100 100 100 100 100 100 100 100 100 100 100 100 100 100 100 100 100 100 100 100 100 100 100 100 100 100 100 100 100 100 100 100 100 100 100 100 100 100 100
100 100 100 100 100 100 100 100 100 100 100 100 100 100 100 100 100 100 100 100 100 100 100 100 100 100 100 100 100 100 100 100 100 100 100 100 100 100 100 100 100 100 100

GFSMW_prec_cloud_111.txt.gz
Cloud_Cover
94 5 0 0 5 40 1 5 5 0 2 0 0 0 5 92 94 100 83 5 2 0 2 7 59 67 13 5 56 32 68 98 83 95 100 100 100 100 99 99 57 100 100
98 86 0 0 0 84 23 2 5 5 2 0 0 16 93 18 28 64 29 84 94 67 60 54 8 5 4 7 13 82 93 100 100 100 100 100 100 100 100 100 100 100 97
22 65 1 0 0 39 97 5 5 5 5 5 2 5 5 98 100 76 99 42 2 4 2 4 0 7 1 20 67 90 100 100 100 100 100 100 100 100 100 100 47 100 100
98 5 0 1 8 99 100 71 78 97 54 37 57 94 5 14 64 83 79 5 4 0 0 3 4 0 0 11 8 34 100 100 100 100 100 100 100 100 100 100 98 100 100
64 2 56 100 100 85 100 100 95 99 100 100 100 25 5 35 100 55 56 14 0 0 0 7 35 66 5 4 89 72 100 100 100 100 100 100 100 100 100 100 98 94 68
83 5 99 100 100 100 97 100 99 100 100 100 100 85 52 45 89 100 100 99 93 26 0 0 0 0 30 2 33 100 100 100 80 100 100 100 100 100 100 100 44 74 99
100 71 99 100 100 100 100 100 95 72 79 64 73 100 96 99 100 100 100 100 100 100 85 14 0 0 17 78 100 100 100 100 100 74 79 100 99 100 100 28 71 27 67
100 100 100 100 100 100 100 93 93 100 81 95 100 100 100 99 99 100 100 100 100 100 100 83 2 0 13 98 100 100 100 100 100 24 98 100 100 100 100 5 9 72 99
100 100 100 100 100 100 100 100 100 100 94 93 100 100 100 100 100 100 100 100 100 100 100 100 38 0 100 97 99 100 100 100 74 31 100 100 100 100 61 1 5 5 100
100 100 100 100 100 100 100 100 100 100 87 94 98 100 100 100 100 100 100 100 100 100 100 100 70 6 100 88 93 100 100 100 100 100 100 100 100 100 99 48 86 80 13
100 100 100 100 100 100 100 100 98 93 68 93 100 92 97 100 100 100 100 100 100 100 100 100 100 100 100 100 100 100 61 43 69 87 100 100 87 77 99 100 99 92 37
100 100 100 100 100 100 100 100 100 67 79 100 100 100 100 100 100 100 100 100 100 100 100 100 100 100 100 100 100 100 53 44 100 100 100 100 99 100 100 100 100 100 90
100 100 100 100 100 100 100 100 83 83 98 100 100 100 100 100 100 100 100 100 100 100 100 100 100 100 100 100 100 100 100 100 78 100 100 100 100 100 100 100 100 100 48
100 100 100 100 100 100 100 100 100 100 100 100 100 100 100 100 100 100 100 100 99 100 100 100 100 100 100 100 100 100 100 100 100 100 100 100 98 94 100 100 100 97 85
97 100 100 100 100 100 100 100 100 100 100 100 100 100 100 100 100 100 100 100 100 100 100 100 100 100 100 100 100 100 100 100 100 100 100 100 100 100 100 100 100 87 75
100 100 100 100 100 87 100 73 96 99 100 100 100 100 100 100 100 100 77 100 100 100 100 100 100 100 100 100 100 100 100 100 100 100 100 100 100 100 100 100 100 96 100
100 100 100 100 100 100 100 100 100 100 100 100 100 100 100 100 100 100 92 100 98 100 100 100 100 100 100 100 100 100 100 100 100 100 100 100 100 100 100 100 100 100 100
100 100 100 100 100 100 100 100 100 100 100 100 100 100 96 89 96 95 100 100 100 100 100 100 100 100 100 100 100 100 100 100 100 100 100 100 100 100 100 100 100 100 100
100 98 81 100 100 100 100 100 100 100 100 100 100 100 100 100 100 100 100 100 100 100 100 100 100 100 100 100 100 100 100 100 100 100 100 100 100 100 100 100 100 100 100
55 86 98 95 100 100 100 100 100 100 100 100 100 100 100 100 100 100 100 100 100 100 100 100 100 100 100 100 100 100 100 100 100 100 100 100 100 100 100 100 100 100 100
99 94 100 100 100 100 100 100 100 100 100 100 100 100 100 100 100 100 100 100 100 100 100 100 100 100 100 100 100 100 100 100 100 100 100 100 100 100 100 100 100 100 100
100 100 100 100 100 100 100 100 100 100 100 100 100 100 100 100 100 100 100 100 100 100 100 100 100 100 100 100 100 100 100 100 100 100 100 100 100 100 100 100 100 100 100
100 100 100 100 100 100 100 100 100 100 100 100 100 100 100 100 100 100 100 100 100 100 100 100 100 100 100 100 100 100 100 100 100 100 100 100 100 100 100 100 100 100 100
100 100 100 100 100 100 100 100 100 100 100 100 100 100 100 100 100 100 100 100 100 100 100 100 100 100 100 100 100 100 100 100 100 100 100 100 100 100 100 100 100 100 100
100 100 100 100 100 100 100 100 100 100 100 100 100 100 100 100 100 100 100 100 100 100 100 100 100 100 100 100 100 100 100 100 100 100 100 100 100 100 100 100 100 100 100
100 100 100 100 100 100 100 100 100 100 100 100 100 100 100 100 100 100 100 100 100 100 100 100 100 100 100 100 100 100 100 100 100 100 100 100 100 100 100 100 100 100 100

GFSMW_prec_cloud_114.txt.gz
Cloud_Cover
99 29 98 100 87 95 80 6 1 5 5 44 5 5 5 0 0 0 0 0 3 5 5 0 21 15 7 5 63 100 100 100 100 100 100 100 100 100 100 100 100 100 90
92 93 99 9 22 97 100 100 90 5 5 5 5 5 1 0 0 0 0 0 3 10 12 6 7 13 28 4 63 98 86 100 100 100 100 100 100 100 100 100 100 98 100
100 100 98 96 19 5 5 35 97 18 6 5 5 5 4 0 0 3 0 5 5 5 3 3 15 80 31 88 45 11 19 44 92 98 100 100 100 100 100 100 83 100 100
54 75 100 100 63 43 5 49 85 100 94 5 18 17 17 73 60 68 7 5 5 100 51 3 5 4 2 12 43 38 5 28 85 100 100 100 100 100 100 100 100 100 100
100 100 100 100 20 36 44 44 96 100 100 9 63 98 96 98 100 100 100 100 97 30 5 5 14 0 2 0 34 88 58 2 16 96 100 100 100 100 100 100 100 100 98
69 100 100 100 99 100 100 91 100 84 93 49 78 79 100 100 100 84 97 100 100 100 100 100 97 52 11 4 0 52 51 2 0 1 90 100 100 100 100 100 100 100 100
100 100 100 100 100 99 87 100 100 100 100 76 84 100 100 100 100 100 100 100 100 100 100 100 100 100 90 35 1 68 70 54 27 2 11 77 100 100 100 100 100 83 74
100 100 100 100 100 100 100 99 100 100 100 100 52 98 100 100 100 100 100 100 100 100 100 100 100 100 100 100 18 25 48 23 54 9 100 100 100 100 100 100 100 100 100
100 100 100 100 100 100 100 100 100 100 100 100 100 100 99 100 100 100 100 100 100 100 100 100 100 100 100 100 65 54 33 44 100 100 100 99 99 100 100 100 100 100 100
100 100 100 100 100 100 100 100 100 100 100 100 100 100 100 100 100 100 100 100 100 100 100 100 100 100 100 100 86 8 3 74 100 100 100 100 100 96 100 100 100 100 100
100 100 100 100 100 100 100 100 100 100 100 100 100 100 100 100 100 100 100 100 100 100 100 100 100 100 100 100 95 90 27 100 100 100 100 100 100 100 100 100 100 100 100
100 100 100 100 100 100 100 100 100 100 100 100 100 100 100 100 100 100 100 100 100 100 100 100 100 100 100 100 100 100 100 100 100 100 97 99 78 100 100 100 100 100 100
100 100 100 94 100 100 98 100 100 100 100 100 100 100 100 100 100 100 92 96 100 100 100 100 100 100 100 100 100 100 100 100 100 100 100 94 62 100 100 100 100 100 100
100 100 100 100 100 100 100 100 100 100 100 100 100 100 100 100 100 100 64 83 90 100 100 100 100 100 100 100 100 100 100 100 100 100 100 100 100 100 100 100 100 100 100
100 100 100 100 100 100 100 100 100 100 100 100 99 97 100 100 100 100 100 100 90 100 100 100 100 100 100 100 100 100 100 100 98 100 100 100 100 100 100 100 100 100 100
100 100 100 100 100 100 100 100 100 100 100 100 100 100 100 100 100 100 100 100 76 83 100 100 100 100 100 100 100 100 100 100 100 100 100 100 100 100 100 100 100 100 100
99 96 98 93 99 100 91 100 100 98 85 90 94 100 70 98 99 100 100 100 100 87 98 100 100 100 100 100 100 100 100 100 100 100 100 100 100 100 100 100 100 100 100
76 76 89 88 100 100 100 100 100 100 100 100 100 100 100 100 100 100 100 100 100 100 100 100 100 100 100 100 100 100 100 100 100 100 100 100 100 100 100 100 100 100 100
100 100 100 100 100 100 100 100 100 100 100 100 100 100 100 100 100 100 100 100 100 100 100 100 100 100 100 100 100 100 100 100 100 100 100 100 100 100 100 100 100 100 100
100 100 100 100 98 93 83 99 100 100 100 100 100 100 100 100 100 100 100 100 100 100 100 100 100 100 100 100 100 100 100 100 100 100 100 100 100 100 100 100 100 100 100
100 98 100 99 100 100 99 100 100 100 100 100 100 99 90 100 100 100 100 100 100 100 100 100 100 100 100 100 100 100 100 100 100 100 100 100 100 100 100 100 100 100 100
98 98 100 100 100 100 99 100 100 100 100 100 100 100 100 100 100 100 100 100 100 100 100 100 100 100 100 100 100 100 100 100 100 100 100 100 100 100 100 100 100 100 100
79 96 78 98 100 100 100 100 100 100 100 100 100 100 100 100 100 100 100 100 100 100 100 100 100 100 100 100 100 100 100 100 100 100 100 100 100 100 100 100 100 100 100
67 100 100 100 100 100 100 100 100 100 100 100 100 100 100 100 100 100 100 100 100 100 100 100 100 100 100 100 100 100 100 100 100 100 100 100 100 100 100 100 100 100 100
100 100 100 100 100 100 100 100 100 100 100 100 100 100 100 100 100 100 100 100 100 100 100 100 100 100 100 100 100 100 100 100 100 100 100 100 100 100 100 100 100 100 100
100 100 100 100 100 100 100 100 100 100 100 100 100 100 100 100 100 100 100 100 100 100 100 100 100 100 100 100 100 100 100 100 100 100 100 100 100 100 100 100 100 100 100

GFSMW_prec_cloud_117.txt.gz
Cloud_Cover
0 0 0 0 0 0 0 0 8 100 100 100 93 9 11 8 5 5 16 85 1 0 0 0 0 3 45 100 100 100 100 100 100 100 100 100 100 100 100 100 100 100 100
0 0 0 0 5 5 0 4 48 84 99 100 100 21 49 25 5 53 8 9 27 5 0 0 0 0 0 1 85 100 100 100 100 95 100 100 100 100 100 100 100 100 100
0 0 1 6 100 99 68 99 100 100 96 55 87 20 5 86 67 79 6 7 12 8 2 0 0 6 0 0 0 98 100 100 71 79 100 100 97 64 100 99 100 100 100
12 42 74 52 34 100 100 100 100 100 100 100 83 98 85 80 94 99 67 5 5 5 14 51 69 56 34 15 5 0 64 100 100 100 53 19 88 99 98 98 100 100 100
100 100 100 54 68 92 100 100 100 89 100 52 73 47 100 100 100 100 98 46 40 20 54 100 100 100 100 100 72 9 1 87 100 100 97 72 24 38 96 94 100 100 100
100 100 100 100 100 100 100 100 100 100 100 100 100 81 92 100 100 100 100 100 100 100 90 100 100 100 100 100 100 99 63 24 94 92 12 7 19 32 26 82 100 100 100
100 100 100 100 100 100 100 100 100 100 100 100 100 100 100 100 100 100 100 100 100 100 100 100 100 100 100 100 100 100 100 100 100 99 51 0 0 0 0 48 100 100 96
100 100 100 100 100 100 100 100 100 100 100 100 100 100 100 100 100 100 100 100 100 100 100 100 100 100 100 100 100 100 100 81 100 100 100 9 5 1 0 0 34 100 100
100 100 100 100 100 100 100 100 100 100 100 100 100 100 100 100 100 100 100 100 100 100 100 100 100 100 100 100 100 100 100 100 97 100 100 91 10 6 7 2 14 36 100
100 100 100 100 100 100 100 100 100 100 100 100 100 100 100 100 100 100 100 100 100 100 100 100 100 100 99 100 100 100 100 100 88 100 100 100 100 98 57 73 62 100 100
100 100 100 100 100 100 100 100 100 100 100 100 100 100 100 100 100 100 100 100 100 100 100 100 100 100 100 100 100 100 100 100 54 96 100 100 22 7 100 100 100 100 100
100 100 100 100 100 100 100 100 100 100 100 100 100 100 100 100 100 100 100 100 100 100 100 100 100 100 100 100 100 100 100 100 100 64 98 64 51 100 100 100 100 100 100
100 100 100 100 100 100 100 100 100 100 100 100 100 100 100 100 100 100 100 100 100 100 100 100 100 100 100 100 100 100 100 100 100 100 100 100 100 100 100 100 100 100 100
100 100 100 100 100 100 100 100 100 100 100 100 100 100 100 100 100 100 100 100 98 96 100 100 100 100 100 100 100 100 100 100 100 100 100 100 100 100 100 100 100 100 100
100 100 100 100 100 100 100 100 100 100 100 100 100 100 100 100 100 100 100 100 100 94 100 100 100 100 100 100 100 100 100 100 100 97 100 100 100 100 100 100 100 100 100
100 100 100 100 100 100 100 100 100 83 79 92 94 80 100 99 100 100 82 86 65 43 53 66 99 100 100 100 100 100 100 100 100 100 100 100 100 100 100 100 100 98 100
100 100 100 100 100 99 100 100 100 97 95 92 100 99 90 98 95 69 75 100 86 78 91 74 95 100 100 100 100 100 100 100 100 100 100 100 100 100 100 100 100 100 100
95 100 100 100 100 100 100 100 99 90 100 100 100 100 96 100 100 100 94 99 100 91 99 97 89 92 98 100 100 100 100 100 100 100 100 100 100 100 100 100 100 100 100
85 98 100 94 76 91 92 97 84 100 97 100 100 100 100 100 100 100 100 99 69 86 94 98 98 97 100 100 100 100 100 100 100 100 100 100 100 100 100 100 100 100 100
93 86 82 85 56 71 87 87 99 100 100 100 100 100 100 100 100 100 100 48 77 77 98 99 100 100 100 99 100 100 100 100 100 100 100 100 100 100 100 100 100 100 100
72 64 74 77 90 62 75 60 81 92 100 100 100 100 100 99 100 100 100 100 100 100 100 94 100 100 100 100 100 100 100 100 100 100 100 100 100 100 100 100 100 100 100
69 62 74 84 82 88 99 100 100 100 100 100 100 100 100 100 100 100 100 100 100 100 96 100 100 100 100 100 100 100 100 100 100 100 100 100 100 100 100 100 100 100 100
97 90 54 95 100 100 77 100 100 100 100 100 100 100 100 100 100 100 100 100 100 100 100 100 100 100 100 100 100 100 100 100 100 100 100 100 100 100 100 100 100 100 100
85 98 100 100 100 100 100 100 100 100 100 100 100 100 100 100 100 100 100 100 100 100 100 100 100 100 100 100 100 100 100 100 100 100 100 100 100 100 100 100 100 100 100
87 100 100 100 100 100 100 100 100 100 100 100 100 100 100 100 100 100 100 100 100 100 100 100 100 100 100 100 100 100 100 100 100 100 100 100 100 100 100 100 100 100 100
100 100 100 100 100 100 100 100 100 100 100 100 100 100 100 100 100 100 100 100 100 100 100 100 100 100 100 100 100 100 100 100 100 100 100 100 100 100 100 100 100 100 100

GFSMW_prec_cloud_120.txt.gz
Cloud_Cover
8 0 0 0 0 0 0 0 6 24 0 5 4 5 5 4 99 87 100 30 7 5 28 51 5 5 14 5 91 100 100 100 100 100 100 100 100 100 100 100 100 100 100
21 37 47 37 20 2 0 0 0 5 3 73 100 64 69 13 10 47 100 99 22 5 5 49 39 22 32 4 0 29 100 100 100 100 100 100 100 100 100 100 100 100 100
63 85 100 100 90 89 76 88 68 17 100 100 100 100 66 81 73 61 89 100 88 99 76 16 78 93 98 90 29 12 36 100 100 100 100 100 100 100 100 100 100 100 100
100 100 94 100 100 100 100 100 100 73 100 97 100 100 47 97 100 91 54 58 100 95 99 100 100 100 100 100 100 84 14 26 89 100 100 85 77 100 100 100 100 100 99
100 100 100 99 76 100 100 100 100 56 100 100 100 100 100 87 100 100 93 100 57 54 100 95 100 100 100 100 100 100 100 78 24 90 100 100 100 74 98 87 75 100 100
100 100 100 100 100 100 100 100 100 100 100 100 100 100 100 100 100 100 100 92 100 100 100 100 100 100 100 100 100 100 100 100 100 64 100 100 100 100 98 92 58 5 29
100 100 100 100 100 100 100 97 100 100 100 100 100 100 100 100 100 100 100 100 100 100 100 100 100 100 100 100 100 100 100 100 100 100 80 70 100 100 31 3 0 0 0
100 100 100 100 100 100 100 100 100 100 100 100 100 100 100 100 100 100 100 100 100 100 100 100 100 100 100 100 100 100 100 100 100 100 87 92 76 100 100 17 1 0 1
100 100 100 100 100 100 100 100 100 100 100 100 100 100 100 100 100 100 100 100 100 100 100 100 100 100 100 100 100 100 100 100 100 100 100 85 66 97 100 100 6 5 5
85 66 100 100 100 99 99 100 100 100 100 100 100 100 100 100 100 100 100 100 100 100 100 100 100 100 100 100 100 100 100 100 100 100 100 99 100 100 100 100 86 13 93
96 99 95 100 100 66 86 100 100 100 100 100 100 100 100 100 100 100 100 100 100 100 100 100 100 100 100 100 100 100 100 100 100 100 100 100 91 100 100 100 100 100 93
53 80 100 100 100 82 100 100 100 100 100 100 100 100 100 100 100 100 100 100 100 100 100 100 100 100 100 100 100 100 100 100 100 100 100 100 70 100 100 100 100 100 94
10 66 100 100 100 100 100 100 100 100 100 100 100 100 100 100 100 100 100 100 100 100 100 100 100 100 100 100 100 100 100 100 100 100 100 100 100 100 100 100 100 61 100
98 78 100 100 100 100 100 100 100 100 100 100 100 100 100 100 100 100 100 100 100 100 100 100 100 100 100 100 100 100 100 100 100 100 100 100 100 100 100 95 67 84 100
100 100 100 97 100 100 100 100 100 100 100 100 96 68 93 92 96 100 100 100 100 100 100 100 100 100 100 100 100 99 100 100 100 100 100 100 100 100 100 100 100 100 100
91 100 100 100 100 100 99 80 100 100 100 97 100 69 85 100 100 100 100 99 100 98 100 100 100 100 100 100 100 100 96 100 100 100 100 100 100 100 86 100 100 100 100
100 100 100 100 100 100 96 100 71 80 66 100 100 90 100 100 100 100 100 84 86 98 100 100 100 100 100 100 100 100 98 100 100 100 100 100 100 100 100 100 100 100 100
100 100 100 100 100 91 94 79 64 98 100 100 100 100 100 100 100 100 79 78 85 98 100 100 100 100 100 100 98 96 99 98 91 96 100 100 100 100 100 100 100 100 100
100 100 100 96 86 69 71 53 75 96 97 100 100 100 100 100 100 100 100 100 100 100 95 100 99 98 97 100 100 98 100 100 84 97 100 100 100 100 100 100 100 100 100
85 81 67 66 58 71 68 98 100 98 100 100 100 100 100 100 100 100 100 100 100 100 99 100 100 100 100 100 100 100 100 97 100 100 99 100 100 100 100 100 100 100 100
71 66 56 66 76 84 100 100 100 100 100 100 100 100 100 100 100 100 100 100 100 100 100 98 98 97 100 100 100 100 100 100 100 100 100 100 100 100 100 100 100 100 100
88 65 71 77 94 99 100 100 100 100 100 100 100 100 100 100 100 100 100 100 100 100 100 100 100 100 100 100 98 100 100 100 100 100 100 100 100 100 100 100 100 100 100
90 74 92 99 100 100 100 100 100 100 100 100 100 100 100 100 100 100 100 100 100 100 100 100 100 100 100 100 100 100 100 100 100 100 100 100 100 100 100 100 100 100 100
97 93 100 100 100 100 100 100 100 100 100 100 100 100 100 100 100 100 100 100 100 100 100 100 100 100 100 100 100 100 100 100 100 100 100 100 100 100 100 100 100 100 100
100 100 95 100 100 100 100 100 100 100 100 100 100 100 100 100 100 100 100 100 100 100 100 100 100 100 100 100 100 100 100 100 100 100 100 100 100 100 100 100 100 100 100
59 72 100 100 100 100 100 100 100 100 100 100 100 100 100 100 100 100 100 100 100 100 100 100 100 100 100 100 100 100 100 100 100 100 100 100 100 100 100 100 100 100 100

GFSMW_prec_cloud_123.txt.gz
Cloud_Cover
100 100 100 97 66 32 48 92 100 100 100 100 73 6 0 0 0 0 0 0 0 2 5 5 5 5 62 95 5 95 100 100 100 99 100 100 100 100 100 100 100 100 100
100 96 64 75 40 13 41 100 100 100 100 100 94 42 30 30 8 5 4 5 43 50 28 50 61 84 51 63 32 4 6 99 95 100 100 100 100 100 100 100 100 100 100
100 100 100 95 85 98 95 99 100 100 100 100 100 82 10 99 86 73 5 14 54 72 83 100 100 100 100 100 100 87 34 25 100 100 70 100 100 100 100 100 100 100 100
100 100 100 100 96 63 91 56 56 100 100 100 100 66 79 63 99 100 82 59 64 97 100 100 100 100 100 100 100 100 100 100 50 81 95 77 100 100 100 100 100 100 100
100 92 100 81 100 100 62 11 100 49 97 100 99 88 41 87 100 100 100 100 98 100 100 100 100 100 100 100 100 100 100 100 100 78 93 100 82 100 100 100 100 80 94
100 100 100 100 100 100 100 100 84 96 59 88 97 74 99 100 100 100 100 100 100 100 100 100 100 100 100 100 100 100 100 100 100 100 96 100 100 100 72 95 87 100 91
100 100 100 100 100 96 78 96 92 100 100 100 100 100 100 100 100 100 100 100 100 100 100 100 100 100 100 100 100 100 100 100 100 100 100 100 100 95 14 6 37 92 71
100 100 91 77 78 84 84 75 100 95 100 99 100 100 100 100 100 100 100 100 100 100 100 100 100 100 100 100 100 100 100 100 100 100 100 100 99 7 37 48 100 63 13
100 100 100 100 100 96 100 100 100 100 100 100 100 100 100 100 100 100 100 100 100 100 100 100 100 100 100 100 100 100 100 100 100 100 100 100 100 100 56 88 29 100 100
100 100 79 91 100 89 100 100 100 100 100 100 100 100 100 100 100 100 100 100 100 100 100 100 100 100 100 100 100 100 100 100 100 100 100 100 100 100 62 99 77 40 80
82 42 49 56 87 77 100 100 100 100 100 100 100 100 100 100 100 100 100 100 100 100 100 100 100 100 100 100 100 100 100 100 100 100 100 100 100 100 100 100 96 100 100
32 5 15 48 100 100 100 100 100 100 100 100 100 100 100 100 100 100 100 100 100 100 100 100 100 100 100 100 100 100 100 100 100 100 100 100 100 100 100 100 100 100 100
18 5 42 100 100 100 100 100 100 100 100 100 100 100 100 100 100 100 100 100 100 100 100 100 100 100 100 100 100 100 100 100 100 100 100 100 100 100 100 100 100 100 100
55 11 97 100 100 100 100 100 100 89 99 100 100 100 100 100 100 100 90 100 100 100 100 100 100 100 100 100 100 100 100 100 100 100 100 100 100 100 100 100 100 100 100
89 91 100 100 100 100 100 96 98 96 95 98 95 100 95 100 93 100 100 97 89 100 100 100 100 100 100 100 100 100 100 100 100 100 100 100 100 100 100 100 100 100 100
69 99 100 100 100 100 100 87 84 92 100 100 96 92 100 100 95 100 100 100 72 94 94 100 100 100 100 98 100 100 100 100 100 100 100 100 100 100 100 100 100 100 100
100 100 100 100 100 99 100 80 25 68 79 100 99 100 100 100 100 100 100 98 90 99 98 94 96 96 76 97 100 98 100 100 100 100 100 100 100 100 100 100 100 100 100
100 100 100 100 92 90 96 97 20 29 55 95 100 99 100 100 100 100 100 100 91 92 99 96 100 97 90 95 100 90 84 84 100 100 100 100 100 98 99 100 100 100 100
100 100 100 96 100 100 78 66 83 79 100 100 100 100 100 100 100 100 100 92 81 100 100 100 98 99 90 98 95 47 66 90 100 100 100 100 100 100 88 99 100 100 100
100 100 100 97 100 96 59 71 79 95 100 100 100 100 100 100 100 100 100 100 74 82 100 100 100 100 100 100 92 7 5 89 80 97 93 100 100 100 100 100 100 100 100
100 100 100 98 61 54 55 69 99 100 100 100 100 100 100 100 100 100 100 97 100 100 100 100 100 100 100 98 98 99 100 96 97 99 100 100 100 100 100 100 100 100 100
100 100 86 87 82 70 100 100 100 100 100 100 100 100 100 100 100 100 100 100 100 100 100 100 100 100 100 100 100 100 100 100 100 100 100 100 100 100 100 100 100 100 100
90 82 89 85 83 98 100 100 100 100 100 100 100 100 100 100 100 100 100 100 100 100 100 100 100 100 100 100 100 100 100 100 100 100 100 100 100 100 100 100 100 100 100
99 82 85 87 99 92 63 100 100 100 100 100 100 100 100 100 100 100 100 100 100 100 100 100 100 100 100 100 100 100 100 100 100 100 100 100 100 100 100 100 100 100 100
92 85 92 97 99 53 94 99 98 100 100 100 100 100 100 100 100 100 100 100 100 100 100 100 100 100 100 100 100 100 98 100 100 100 100 100 100 100 100 100 100 100 100
94 98 99 99 98 54 83 79 100 100 100 100 100 100 100 100 100 100 100 100 100 100 100 100 100 100 100 100 100 100 100 100 100 100 100 100 100 100 100 100 100 100 100

GFSMW_prec_cloud_126.txt.gz
Cloud_Cover
98 100 100 100 100 100 100 100 100 100 100 93 81 100 100 100 61 1 0 0 7 36 19 5 2 0 0 10 52 62 83 96 71 100 100 100 100 100 100 100 100 100 100
100 100 100 100 100 100 100 100 95 67 99 100 99 91 100 100 93 34 2 16 34 49 62 100 96 100 69 45 29 20 94 35 96 77 100 100 100 100 100 100 100 100 100
14 25 10 25 49 64 46 12 5 5 39 55 95 99 81 67 99 100 50 26 67 100 100 100 100 100 100 100 100 100 86 43 8 82 100 92 100 100 100 100 100 100 100
22 50 22 40 64 10 31 18 5 62 5 18 28 76 8 67 19 50 27 39 73 79 93 100 100 100 100 100 100 100 100 100 94 6 60 97 24 43 100 100 100 100 100
88 86 100 100 100 74 56 64 80 68 55 82 74 55 64 60 99 20 6 54 26 79 100 100 100 100 100 100 100 100 100 100 100 100 73 94 100 67 100 100 100 100 100
100 100 99 98 99 99 91 74 91 78 91 82 83 95 91 90 62 96 48 88 100 99 96 100 100 100 100 100 100 100 100 100 100 100 100 100 100 14 90 100 100 100 90
100 89 94 98 100 99 96 84 76 72 83 97 94 99 100 96 99 80 100 100 100 98 100 100 100 100 100 100 100 100 100 100 100 100 100 100 100 96 99 96 58 81 14
86 96 90 88 86 66 82 90 73 80 83 100 100 100 100 100 100 100 100 100 100 100 100 100 100 100 100 100 100 100 100 100 100 100 100 100 100 100 100 44 43 95 99
100 100 91 89 88 70 100 100 98 100 100 100 100 100 100 100 100 100 100 100 100 100 100 100 100 100 100 100 100 100 100 100 100 100 100 100 100 100 100 100 76 41 77
99 84 45 38 96 100 100 100 100 100 100 100 100 100 100 100 100 100 100 100 100 100 100 100 100 100 100 100 100 100 100 100 100 100 100 100 100 100 100 100 100 65 51
98 76 14 16 66 97 100 100 100 100 100 100 100 100 100 100 100 100 100 100 100 100 100 100 100 100 100 100 100 100 100 100 100 100 100 100 100 100 100 100 100 98 40
70 42 5 22 53 100 100 100 100 100 100 100 100 100 100 100 100 100 100 100 100 100 100 100 100 100 100 100 100 100 100 100 100 100 100 100 100 100 100 100 100 100 100
100 48 15 28 92 100 100 100 100 100 96 92 89 100 100 98 99 100 100 100 100 100 100 100 100 100 100 100 100 100 100 100 100 100 100 100 100 100 100 100 100 100 100
100 70 57 73 100 100 100 100 99 89 56 7 14 100 100 100 100 100 100 100 100 100 96 100 100 100 100 100 100 100 100 100 100 100 100 100 100 100 100 100 100 100 100
100 92 72 92 100 100 100 100 93 66 61 52 6 85 100 100 100 100 100 100 100 87 100 88 100 98 100 100 100 100 100 100 100 100 100 100 100 100 100 100 100 100 100
100 100 100 100 100 100 100 100 88 44 5 5 5 5 87 100 100 100 100 100 100 84 97 100 100 62 8 85 99 100 100 100 100 100 100 100 100 100 100 100 100 100 100
99 96 99 100 100 100 100 100 79 27 5 44 25 7 97 99 100 100 100 100 99 78 99 92 99 88 31 58 74 97 100 100 100 100 100 100 100 100 100 100 100 100 100
94 95 100 100 100 100 100 100 55 11 69 63 71 74 98 100 100 100 100 100 100 100 100 100 100 96 41 52 70 92 81 88 95 100 100 100 100 100 100 100 100 100 100
100 100 100 100 100 100 100 100 67 99 99 84 89 99 100 100 100 100 100 100 100 100 100 100 99 100 84 61 21 70 19 62 73 87 87 92 90 100 98 98 90 100 100
100 100 100 100 100 100 100 97 97 84 100 100 100 100 100 100 100 100 100 100 100 100 99 87 88 100 95 84 74 81 99 99 61 92 100 100 100 100 100 99 100 99 98
100 100 100 100 100 100 95 86 86 97 87 100 100 100 100 100 100 100 100 100 100 97 100 100 100 99 100 100 100 100 100 100 100 100 100 100 99 92 93 98 98 97 98
100 100 100 100 100 91 68 81 98 99 94 100 100 100 100 100 100 100 100 100 100 100 100 100 100 100 100 100 100 100 100 100 100 100 99 98 92 79 99 96 96 99 99
100 100 100 96 91 78 42 98 96 100 100 100 100 100 100 100 100 100 100 100 100 100 100 100 100 100 100 100 100 100 100 100 100 100 100 100 99 94 60 100 100 100 89
100 100 98 97 97 50 13 94 52 100 100 100 100 100 100 100 100 100 100 100 100 100 100 100 100 100 100 100 100 100 100 100 100 100 100 100 100 100 100 100 100 100 100
100 99 97 100 82 57 7 90 100 100 100 100 100 100 100 100 100 100 100 100 100 100 100 100 100 100 100 100 100 100 100 100 100 100 100 100 100 100 100 100 100 97 100
98 96 100 84 11 16 96 100 100 100 86 90 100 100 100 100 100 100 100 100 100 100 100 100 100 100 100 100 100 100 100 84 78 86 100 100 94 72 96 100 100 100 100

GFSMW_prec_cloud_129.txt.gz
Cloud_Cover
5 5 2 5 5 5 5 60 100 100 100 100 100 100 100 100 100 100 100 100 73 40 36 48 28 36 5 32 8 26 12 18 54 47 99 100 100 100 100 100 100 100 100
4 5 5 23 48 32 54 47 82 87 90 100 98 95 91 76 14 94 100 100 42 40 25 93 100 92 94 99 90 100 60 0 0 19 1 69 100 100 100 100 100 100 100
8 5 25 73 90 77 72 71 59 65 49 22 5 5 12 5 22 12 34 100 99 48 87 94 100 100 90 99 100 100 100 97 24 0 72 23 92 100 100 100 100 100 100
5 5 32 52 45 63 60 52 53 35 21 32 17 11 5 5 32 14 5 32 32 83 71 75 69 100 100 100 100 100 100 100 100 94 8 28 26 100 100 100 100 100 100
5 16 52 41 54 65 67 63 66 79 86 47 57 20 27 30 24 44 59 55 46 26 37 100 100 100 100 100 100 100 100 100 100 100 100 100 28 93 100 100 100 100 100
18 33 29 20 63 48 44 36 31 39 69 73 93 85 98 86 78 79 68 96 99 95 78 58 93 87 100 100 100 100 100 100 100 100 100 100 100 96 100 100 100 100 100
62 40 58 64 40 20 14 4 17 34 81 94 100 100 100 100 93 93 100 100 100 100 100 100 95 89 99 100 100 100 100 100 100 100 100 100 100 100 100 100 100 100 100
75 84 55 37 12 4 21 41 33 45 84 100 100 100 100 100 100 100 100 100 100 100 100 100 100 96 99 100 100 100 100 100 100 100 100 100 100 100 100 100 100 100 100
97 77 43 9 1 1 54 93 76 68 100 100 100 100 100 100 100 100 100 100 100 100 100 100 100 100 100 100 100 100 100 100 100 100 100 100 100 100 100 100 100 100 100
99 47 47 4 0 10 45 96 100 100 100 100 100 100 100 100 100 100 100 100 100 100 100 100 100 100 100 100 100 100 100 100 100 100 100 100 100 100 100 100 100 100 100
84 75 59 4 5 18 66 98 100 100 100 100 100 100 100 100 97 100 100 100 100 100 100 100 100 100 100 100 100 100 100 100 100 100 100 100 100 100 100 100 100 100 100
100 86 46 5 5 13 47 96 100 100 100 100 100 100 100 100 100 100 100 100 100 100 100 100 100 100 100 100 100 100 100 100 100 100 100 100 100 100 100 100 100 100 100
100 60 33 11 5 13 44 90 100 100 99 100 98 79 39 23 20 100 100 100 100 100 100 100 100 100 100 100 100 100 100 100 100 100 100 100 100 100 100 100 100 100 100
66 49 61 24 34 81 79 100 100 100 92 60 63 26 5 5 5 98 100 100 100 100 100 100 100 100 100 99 100 100 100 100 100 100 100 100 100 100 100 100 100 100 100
71 67 77 29 100 100 100 96 100 97 94 81 79 9 5 5 5 74 100 100 100 100 100 100 100 100 100 91 100 100 100 100 100 100 100 100 100 100 100 100 100 100 100
86 100 70 53 53 80 74 98 98 46 40 5 5 5 5 5 5 68 100 100 100 100 98 100 100 100 100 100 100 100 99 92 94 89 81 95 100 100 100 100 100 100 100
100 99 83 99 96 86 100 100 77 23 5 5 5 5 12 6 59 89 100 100 100 100 100 100 100 100 100 100 93 86 96 91 100 94 95 87 76 77 100 100 100 100 100
100 89 100 100 100 100 100 100 93 76 5 5 5 7 25 65 83 100 100 100 100 100 100 100 100 100 100 72 98 99 84 89 96 100 94 96 97 71 92 93 100 100 100
96 92 100 100 100 100 99 100 100 84 23 5 20 98 100 99 99 100 100 100 100 100 100 100 100 100 100 92 86 95 89 74 72 80 74 12 8 92 66 63 49 100 100
87 100 100 100 100 100 100 100 100 100 84 54 14 54 74 99 100 100 100 100 100 100 100 100 100 100 76 81 82 57 98 94 84 86 89 72 84 68 88 64 72 98 87
100 100 100 100 100 100 100 100 100 100 56 35 53 96 98 100 100 100 100 100 100 100 100 100 91 80 100 94 77 90 97 100 100 100 100 98 96 97 91 79 90 96 97
100 100 100 100 100 100 100 100 83 57 88 83 75 100 100 100 100 100 100 100 100 100 100 100 100 98 100 96 100 100 100 100 100 100 100 100 100 100 100 88 95 89 95
100 100 100 100 100 100 100 70 50 77 68 89 81 100 100 100 100 100 100 100 100 100 100 100 100 100 100 100 100 100 100 100 100 100 100 100 100 100 100 100 100 100 59
100 100 100 100 100 92 80 73 85 83 64 53 100 100 100 100 100 100 100 100 100 100 100 100 100 100 100 100 100 100 100 100 100 100 100 100 100 100 100 76 90 100 97
100 100 100 100 95 92 91 98 98 80 96 100 100 100 100 100 100 100 100 100 100 100 100 100 100 100 100 100 100 100 100 100 100 100 100 100 100 100 100 100 100 100 100
100 100 100 100 100 98 86 94 77 100 100 100 99 93 99 100 100 90 83 100 100 100 100 100 100 100 100 100 100 100 100 100 93 100 100 100 100 90 98 100 100 100 100

GFSMW_prec_cloud_132.txt.gz
Cloud_Cover
5 5 5 5 5 5 1 5 0 0 0 0 5 5 19 34 5 67 100 100 100 100 100 100 100 100 100 97 17 3 0 0 0 0 0 1 69 100 100 100 100 100 100
5 5 5 12 5 5 5 5 3 0 0 0 0 0 0 4 5 5 4 16 56 99 100 93 80 99 94 91 100 100 100 23 0 34 0 0 4 100 100 100 100 100 100
4 5 5 5 5 10 15 34 5 4 0 0 0 0 0 0 0 6 0 0 1 2 96 90 100 100 100 100 100 100 100 100 100 78 99 42 4 12 100 100 100 100 100
5 5 5 51 33 60 32 15 71 4 5 4 0 0 0 1 4 6 4 56 52 34 24 12 100 100 100 100 100 100 100 100 100 100 86 72 99 100 60 60 71 100 100
94 100 100 100 100 26 41 7 21 5 46 44 29 20 18 26 3 5 5 5 4 36 85 53 100 100 100 100 100 100 100 100 100 100 100 100 100 93 99 64 2 72 100
100 100 100 100 100 100 87 56 5 0 1 93 100 87 73 88 86 94 100 86 100 93 79 27 75 100 100 100 100 100 100 100 100 100 100 100 100 100 100 100 95 94 85
100 100 100 100 100 100 93 5 5 3 8 79 100 100 100 100 100 99 100 100 100 100 100 100 100 100 100 100 100 100 100 100 100 100 100 100 100 100 100 100 100 100 83
100 100 100 100 100 65 5 5 0 2 47 100 100 100 100 100 100 100 100 100 100 100 100 100 100 100 100 100 100 100 100 100 100 100 100 100 100 100 100 100 100 100 100
100 100 94 5 5 5 4 4 4 26 95 100 100 100 100 100 100 100 100 100 100 100 100 100 100 100 100 100 100 100 100 100 100 100 100 100 100 100 100 100 100 100 100
90 10 5 5 5 4 4 27 85 100 100 100 100 100 100 100 100 100 100 100 98 93 88 68 100 100 100 100 100 100 100 100 100 100 100 100 100 100 100 100 100 100 100
36 12 7 5 5 3 4 15 93 100 100 100 100 100 100 100 100 100 100 100 91 99 97 98 100 100 100 100 100 100 100 100 100 100 100 100 100 100 100 100 100 100 100
11 21 5 5 5 5 5 16 83 100 100 75 100 100 100 90 69 56 71 20 82 96 100 100 100 100 100 100 100 100 100 100 100 100 100 100 100 100 100 100 100 100 100
20 5 10 5 5 5 5 23 60 99 98 100 100 33 6 5 5 5 10 5 50 100 100 100 100 100 100 100 100 100 100 100 100 100 100 100 100 100 100 100 100 100 100
65 6 27 8 15 5 12 34 62 100 89 98 95 45 30 92 5 5 5 5 48 99 100 100 100 100 100 100 100 100 100 100 100 100 100 99 100 100 100 100 100 100 100
36 80 95 63 5 5 24 55 69 38 93 88 62 8 16 13 5 5 45 54 62 98 100 100 100 100 100 100 100 100 100 100 66 100 98 100 100 100 100 100 100 100 100
100 100 99 100 5 42 69 77 79 72 12 5 5 5 5 5 5 43 72 65 90 100 100 100 100 100 100 100 100 100 100 100 100 43 38 17 96 99 96 100 100 100 100
100 23 100 91 37 86 96 100 94 90 64 5 5 19 9 16 5 33 93 93 100 100 100 100 100 100 100 100 100 100 100 100 100 100 52 53 55 5 5 47 91 94 100
100 61 10 24 44 92 100 100 100 81 18 63 62 86 57 73 56 59 100 100 100 100 100 99 100 100 100 100 100 100 100 100 100 100 100 98 36 66 8 35 7 26 96
68 6 5 13 100 98 100 99 96 91 100 96 100 97 34 8 47 99 100 100 100 100 100 99 100 100 100 100 100 100 100 100 100 100 100 93 84 97 60 5 55 5 68
74 54 100 100 100 100 100 100 100 100 100 100 100 67 10 5 63 92 100 100 100 100 100 100 100 100 100 100 100 100 100 100 100 100 100 98 100 100 100 24 78 79 56
100 100 99 100 100 100 100 100 100 100 100 100 76 53 20 73 100 100 100 100 100 100 100 100 100 100 62 34 100 100 100 100 100 100 100 100 100 100 100 100 82 95 38
100 100 95 100 100 100 100 100 100 100 100 74 5 47 49 99 100 100 96 100 100 100 100 100 79 56 13 88 86 100 100 100 100 100 100 100 100 100 100 100 97 81 96
100 100 96 100 100 100 100 100 100 100 34 26 75 78 78 99 100 100 100 100 100 100 100 100 100 100 100 100 89 99 100 99 99 100 100 100 100 100 100 100 100 100 67
99 94 91 100 100 100 100 100 90 72 26 51 73 77 100 100 100 100 100 100 100 100 100 100 100 100 100 100 100 100 100 100 100 100 100 100 100 100 100 100 100 100 100
84 99 100 100 100 100 100 82 91 67 5 65 26 96 100 100 100 100 100 100 100 100 100 100 100 100 100 100 100 100 100 100 100 100 100 100 100 100 100 100 100 100 100
100 93 100 100 100 100 100 100 97 57 15 7 72 99 55 69 99 94 100 94 100 100 100 100 79 94 100 100 100 100 100 99 87 31 36 25 5 5 5 5 5 6 14

GFSMW_prec_cloud_135.txt.gz
Cloud_Cover
100 99 100 40 1 4 4 0 5 5 5 5 5 21 9 5 5 4 0 0 0 0 0 31 98 24 82 96 8 36 28 33 5 16 0 7 6 100 100 100 100 100 100
94 97 46 5 5 5 1 0 5 5 6 40 41 20 5 5 5 5 4 0 0 0 0 0 18 46 100 98 94 100 100 82 64 65 47 11 2 73 100 100 42 100 100
5 53 27 11 5 2 5 18 5 5 8 74 100 94 88 54 12 4 2 0 0 0 0 0 2 74 100 99 100 100 100 100 100 100 81 47 40 19 2 98 100 100 100
9 3 5 5 5 32 59 80 30 7 42 100 100 100 100 19 0 0 0 0 0 0 4 3 17 100 100 100 100 100 100 100 100 100 100 100 100 98 50 0 94 56 100
35 5 5 10 100 100 83 82 100 100 100 100 100 46 5 2 0 0 0 31 64 91 21 38 87 100 100 100 100 100 100 100 100 100 100 100 100 100 100 35 0 5 85
98 95 100 100 100 100 100 100 100 100 100 82 15 5 1 7 5 54 100 100 100 100 100 100 100 100 100 100 100 100 100 100 100 100 100 100 100 100 100 100 100 98 2
38 98 100 100 100 100 96 90 100 72 58 6 6 42 52 25 25 98 100 100 100 100 100 100 100 100 100 100 100 100 100 100 100 100 100 100 100 100 100 100 100 100 100
17 87 100 100 100 86 85 26 11 5 7 54 80 89 95 100 99 98 100 100 100 100 100 100 100 100 100 100 100 100 100 100 100 100 100 100 100 100 100 100 100 100 100
8 71 98 60 83 5 5 5 5 4 81 100 100 100 100 96 100 100 100 100 99 82 57 96 96 100 100 100 99 100 100 100 100 100 100 100 100 100 100 100 100 100 100
89 83 90 85 13 5 5 5 5 17 91 100 100 100 100 100 100 100 100 85 94 97 95 100 95 85 98 100 100 100 100 100 100 100 100 100 100 100 100 100 100 100 100
56 70 81 8 5 5 5 5 13 99 100 100 100 99 100 97 31 56 56 34 26 50 27 54 49 52 64 98 100 100 100 100 100 100 100 100 100 100 100 100 100 100 100
100 58 5 5 5 34 5 5 62 99 41 70 100 63 7 6 5 5 5 5 5 17 5 69 72 5 100 100 100 100 100 100 100 100 100 100 100 100 100 100 100 100 100
98 36 5 81 96 75 87 69 6 33 23 92 61 5 5 5 5 43 24 51 65 5 5 21 88 100 93 95 100 100 100 100 100 100 100 100 100 100 100 100 98 95 100
91 100 68 67 99 99 59 10 6 68 92 96 40 5 5 5 5 5 5 5 5 9 44 56 100 100 93 100 100 100 100 100 100 100 100 100 100 100 100 100 100 79 100
100 100 100 100 100 100 100 100 85 100 100 100 60 5 5 5 5 5 5 5 5 5 66 97 100 100 100 100 100 100 100 100 100 100 100 100 100 100 100 100 100 100 98
100 100 100 100 100 100 94 100 100 100 100 72 64 10 5 5 5 35 5 5 5 20 88 100 100 100 100 100 100 100 100 100 100 100 100 100 100 100 99 100 98 100 100
100 100 100 100 100 100 75 95 99 98 98 100 94 41 5 5 30 14 5 5 20 26 100 100 100 100 100 100 100 97 91 100 100 100 100 100 100 100 100 71 58 86 99
100 100 100 100 100 91 100 100 100 94 100 94 27 5 9 10 47 5 5 5 24 98 100 100 100 100 100 100 100 100 100 100 99 100 100 100 100 100 100 74 92 5 77
100 100 100 100 100 100 100 100 81 100 100 98 75 63 71 57 74 40 6 65 63 100 100 100 100 100 100 100 100 100 100 100 100 100 100 100 100 100 82 93 100 95 87
100 100 100 100 100 100 100 92 100 98 100 100 100 99 94 100 31 5 5 44 99 100 100 100 100 100 100 100 100 93 100 100 100 100 100 100 100 100 100 100 100 96 54
100 100 100 100 100 100 88 91 91 100 96 100 100 100 100 46 5 5 6 34 100 100 100 100 100 100 100 100 100 100 81 98 100 100 100 100 100 100 100 100 81 89 31
100 100 100 100 100 100 100 99 100 100 100 100 100 100 38 5 5 18 94 100 100 100 100 100 100 100 100 100 95 100 99 94 84 98 100 100 100 100 100 96 95 32 10
100 100 100 100 100 90 100 100 100 100 100 100 100 44 99 71 98 77 100 100 100 100 100 100 100 100 100 100 100 100 96 50 61 31 48 100 91 49 65 100 97 52 18
100 100 100 100 100 100 98 100 100 100 100 98 88 99 100 88 29 87 100 100 100 100 100 100 100 100 100 100 100 100 100 93 100 100 100 99 100 87 95 86 82 53 40
100 100 100 100 100 100 100 100 100 100 96 92 100 100 100 96 100 100 100 100 100 100 100 100 100 100 100 100 100 100 100 100 100 100 100 100 84 65 47 37 10 70 95
80 97 100 100 98 100 100 100 100 100 98 100 100 96 100 100 100 100 100 100 100 100 100 100 100 100 97 79 78 100 100 98 9 10 6 40 7 41 27 84 96 100 92